Year,Month,Day,Hour,Minute,Value (Times are PST for temperature in C)
2018,10,16,00,00,9.60
2018,10,16,00,01,9.60
2018,10,16,00,02,9.60
2018,10,16,00,03,9.60
2018,10,16,00,04,9.50
2018,10,16,00,05,9.50
2018,10,16,00,06,9.50
2018,10,16,00,07,9.50
2018,10,16,00,08,9.50
2018,10,16,00,09,9.50
2018,10,16,00,10,9.50
2018,10,16,00,11,9.40
2018,10,16,00,12,9.40
2018,10,16,00,13,9.40
2018,10,16,00,14,9.40
2018,10,16,00,15,9.40
2018,10,16,00,16,9.40
2018,10,16,00,17,9.40
2018,10,16,00,18,9.40
2018,10,16,00,19,9.40
2018,10,16,00,20,9.40
2018,10,16,00,21,9.40
2018,10,16,00,22,9.30
2018,10,16,00,23,9.30
2018,10,16,00,24,9.30
2018,10,16,00,25,9.30
2018,10,16,00,26,9.30
2018,10,16,00,27,9.30
2018,10,16,00,28,9.30
2018,10,16,00,29,9.30
2018,10,16,00,30,9.30
2018,10,16,00,31,9.30
2018,10,16,00,32,9.20
2018,10,16,00,33,9.20
2018,10,16,00,34,9.20
2018,10,16,00,35,9.20
2018,10,16,00,36,9.20
2018,10,16,00,37,9.20
2018,10,16,00,38,9.20
2018,10,16,00,39,9.20
2018,10,16,00,40,9.10
2018,10,16,00,41,9.10
2018,10,16,00,42,9.10
2018,10,16,00,43,9.10
2018,10,16,00,44,9.10
2018,10,16,00,45,9.10
2018,10,16,00,46,9.10
2018,10,16,00,47,9.10
2018,10,16,00,48,9.10
2018,10,16,00,49,9.10
2018,10,16,00,50,9.10
2018,10,16,00,51,9.10
2018,10,16,00,52,9.20
2018,10,16,00,53,9.20
2018,10,16,00,54,9.20
2018,10,16,00,55,9.20
2018,10,16,00,56,9.20
2018,10,16,00,57,9.20
2018,10,16,00,58,9.20
2018,10,16,00,59,9.20
2018,10,16,01,00,9.20
2018,10,16,01,01,9.20
2018,10,16,01,02,9.20
2018,10,16,01,03,9.20
2018,10,16,01,04,9.20
2018,10,16,01,05,9.20
2018,10,16,01,06,9.20
2018,10,16,01,07,9.20
2018,10,16,01,08,9.20
2018,10,16,01,09,9.20
2018,10,16,01,10,9.20
2018,10,16,01,11,9.20
2018,10,16,01,12,9.20
2018,10,16,01,13,9.30
2018,10,16,01,14,9.30
2018,10,16,01,15,9.40
2018,10,16,01,16,9.40
2018,10,16,01,17,9.40
2018,10,16,01,18,9.40
2018,10,16,01,19,9.50
2018,10,16,01,20,9.50
2018,10,16,01,21,9.50
2018,10,16,01,22,9.60
2018,10,16,01,23,9.60
2018,10,16,01,24,9.70
2018,10,16,01,25,9.70
2018,10,16,01,26,9.70
2018,10,16,01,27,9.70
2018,10,16,01,28,9.70
2018,10,16,01,29,9.80
2018,10,16,01,30,9.80
2018,10,16,01,31,9.80
2018,10,16,01,32,9.80
2018,10,16,01,33,9.80
2018,10,16,01,34,9.80
2018,10,16,01,35,9.80
2018,10,16,01,36,9.90
2018,10,16,01,37,9.90
2018,10,16,01,38,9.90
2018,10,16,01,39,9.90
2018,10,16,01,40,9.90
2018,10,16,01,41,9.90
2018,10,16,01,42,9.90
2018,10,16,01,43,9.90
2018,10,16,01,44,9.90
2018,10,16,01,45,9.90
2018,10,16,01,46,9.90
2018,10,16,01,47,9.80
2018,10,16,01,48,9.80
2018,10,16,01,49,9.80
2018,10,16,01,50,9.80
2018,10,16,01,51,9.80
2018,10,16,01,52,9.80
2018,10,16,01,53,9.80
2018,10,16,01,54,9.80
2018,10,16,01,55,9.80
2018,10,16,01,56,9.80
2018,10,16,01,57,9.70
2018,10,16,01,58,9.70
2018,10,16,01,59,9.60
2018,10,16,02,00,9.60
2018,10,16,02,01,9.60
2018,10,16,02,02,9.50
2018,10,16,02,03,9.50
2018,10,16,02,04,9.50
2018,10,16,02,05,9.50
2018,10,16,02,06,9.50
2018,10,16,02,07,9.50
2018,10,16,02,08,9.50
2018,10,16,02,09,9.50
2018,10,16,02,10,9.50
2018,10,16,02,11,9.40
2018,10,16,02,12,9.40
2018,10,16,02,13,9.40
2018,10,16,02,14,9.40
2018,10,16,02,15,9.30
2018,10,16,02,16,9.30
2018,10,16,02,17,9.30
2018,10,16,02,18,9.20
2018,10,16,02,19,9.20
2018,10,16,02,20,9.20
2018,10,16,02,21,9.20
2018,10,16,02,22,9.20
2018,10,16,02,23,9.20
2018,10,16,02,24,9.20
2018,10,16,02,25,9.20
2018,10,16,02,26,9.10
2018,10,16,02,27,9.10
2018,10,16,02,28,9.10
2018,10,16,02,29,9.00
2018,10,16,02,30,9.00
2018,10,16,02,31,9.00
2018,10,16,02,32,9.00
2018,10,16,02,33,9.00
2018,10,16,02,34,9.00
2018,10,16,02,35,9.00
2018,10,16,02,36,9.00
2018,10,16,02,37,8.90
2018,10,16,02,38,8.90
2018,10,16,02,39,8.90
2018,10,16,02,40,8.90
2018,10,16,02,41,8.90
2018,10,16,02,42,8.90
2018,10,16,02,43,8.90
2018,10,16,02,44,8.90
2018,10,16,02,45,8.90
2018,10,16,02,46,8.90
2018,10,16,02,47,8.90
2018,10,16,02,48,8.90
2018,10,16,02,49,8.90
2018,10,16,02,50,8.90
2018,10,16,02,51,8.90
2018,10,16,02,52,8.90
2018,10,16,02,53,8.90
2018,10,16,02,54,8.90
2018,10,16,02,55,8.90
2018,10,16,02,56,9.00
2018,10,16,02,57,9.00
2018,10,16,02,58,9.00
2018,10,16,02,59,9.10
2018,10,16,03,00,9.10
2018,10,16,03,01,9.10
2018,10,16,03,02,9.10
2018,10,16,03,03,9.10
2018,10,16,03,04,9.20
2018,10,16,03,05,9.20
2018,10,16,03,06,9.20
2018,10,16,03,07,9.20
2018,10,16,03,08,9.30
2018,10,16,03,09,9.30
2018,10,16,03,10,9.40
2018,10,16,03,11,9.40
2018,10,16,03,12,9.50
2018,10,16,03,13,9.50
2018,10,16,03,14,9.60
2018,10,16,03,15,9.60
2018,10,16,03,16,9.70
2018,10,16,03,17,9.70
2018,10,16,03,18,9.70
2018,10,16,03,19,9.70
2018,10,16,03,20,9.70
2018,10,16,03,21,9.80
2018,10,16,03,22,9.80
2018,10,16,03,23,9.80
2018,10,16,03,24,9.80
2018,10,16,03,25,9.80
2018,10,16,03,26,9.80
2018,10,16,03,27,9.80
2018,10,16,03,28,9.80
2018,10,16,03,29,9.80
2018,10,16,03,30,9.80
2018,10,16,03,31,9.70
2018,10,16,03,32,9.70
2018,10,16,03,33,9.70
2018,10,16,03,34,9.70
2018,10,16,03,35,9.70
2018,10,16,03,36,9.60
2018,10,16,03,37,9.60
2018,10,16,03,38,9.60
2018,10,16,03,39,9.60
2018,10,16,03,40,9.60
2018,10,16,03,41,9.50
2018,10,16,03,42,9.50
2018,10,16,03,43,9.50
2018,10,16,03,44,9.50
2018,10,16,03,45,9.40
2018,10,16,03,46,9.40
2018,10,16,03,47,9.40
2018,10,16,03,48,9.40
2018,10,16,03,49,9.30
2018,10,16,03,50,9.30
2018,10,16,03,51,9.20
2018,10,16,03,52,9.20
2018,10,16,03,53,9.20
2018,10,16,03,54,9.10
2018,10,16,03,55,9.10
2018,10,16,03,56,9.10
2018,10,16,03,57,9.10
2018,10,16,03,58,9.20
2018,10,16,03,59,9.20
2018,10,16,04,00,9.20
2018,10,16,04,01,9.20
2018,10,16,04,02,9.20
2018,10,16,04,03,9.20
2018,10,16,04,04,9.30
2018,10,16,04,05,9.30
2018,10,16,04,06,9.40
2018,10,16,04,07,9.40
2018,10,16,04,08,9.40
2018,10,16,04,09,9.40
2018,10,16,04,10,9.40
2018,10,16,04,11,9.40
2018,10,16,04,12,9.40
2018,10,16,04,13,9.40
2018,10,16,04,14,9.40
2018,10,16,04,15,9.40
2018,10,16,04,16,9.40
2018,10,16,04,17,9.40
2018,10,16,04,18,9.40
2018,10,16,04,19,9.40
2018,10,16,04,20,9.30
2018,10,16,04,21,9.30
2018,10,16,04,22,9.30
2018,10,16,04,23,9.30
2018,10,16,04,24,9.20
2018,10,16,04,25,9.20
2018,10,16,04,26,9.20
2018,10,16,04,27,9.20
2018,10,16,04,28,9.30
2018,10,16,04,29,9.30
2018,10,16,04,30,9.30
2018,10,16,04,31,9.40
2018,10,16,04,32,9.40
2018,10,16,04,33,9.40
2018,10,16,04,34,9.40
2018,10,16,04,35,9.40
2018,10,16,04,36,9.40
2018,10,16,04,37,9.40
2018,10,16,04,38,9.40
2018,10,16,04,39,9.40
2018,10,16,04,40,9.40
2018,10,16,04,41,9.40
2018,10,16,04,42,9.40
2018,10,16,04,43,9.40
2018,10,16,04,44,9.40
2018,10,16,04,45,9.40
2018,10,16,04,46,9.40
2018,10,16,04,47,9.40
2018,10,16,04,48,9.40
2018,10,16,04,49,9.40
2018,10,16,04,50,9.40
2018,10,16,04,51,9.40
2018,10,16,04,52,9.30
2018,10,16,04,53,9.30
2018,10,16,04,54,9.30
2018,10,16,04,55,9.30
2018,10,16,04,56,9.30
2018,10,16,04,57,9.20
2018,10,16,04,58,9.20
2018,10,16,04,59,9.20
2018,10,16,05,00,9.20
2018,10,16,05,01,9.20
2018,10,16,05,02,9.20
2018,10,16,05,03,9.10
2018,10,16,05,04,9.10
2018,10,16,05,05,9.10
2018,10,16,05,06,9.10
2018,10,16,05,07,9.00
2018,10,16,05,08,9.00
2018,10,16,05,09,8.90
2018,10,16,05,10,8.90
2018,10,16,05,11,8.90
2018,10,16,05,12,8.80
2018,10,16,05,13,8.80
2018,10,16,05,14,8.80
2018,10,16,05,15,8.70
2018,10,16,05,16,8.70
2018,10,16,05,17,8.70
2018,10,16,05,18,8.70
2018,10,16,05,19,8.70
2018,10,16,05,20,8.80
2018,10,16,05,21,8.80
2018,10,16,05,22,8.90
2018,10,16,05,23,8.90
2018,10,16,05,24,9.10
2018,10,16,05,25,9.20
2018,10,16,05,26,9.30
2018,10,16,05,27,9.50
2018,10,16,05,28,9.60
2018,10,16,05,29,9.70
2018,10,16,05,30,9.80
2018,10,16,05,31,9.80
2018,10,16,05,32,9.90
2018,10,16,05,33,9.90
2018,10,16,05,34,9.90
2018,10,16,05,35,9.90
2018,10,16,05,36,9.90
2018,10,16,05,37,10.00
2018,10,16,05,38,10.00
2018,10,16,05,39,10.10
2018,10,16,05,40,10.10
2018,10,16,05,41,10.10
2018,10,16,05,42,10.10
2018,10,16,05,43,10.20
2018,10,16,05,44,10.20
2018,10,16,05,45,10.20
2018,10,16,05,46,10.20
2018,10,16,05,47,10.20
2018,10,16,05,48,10.20
2018,10,16,05,49,10.20
2018,10,16,05,50,10.10
2018,10,16,05,51,10.10
2018,10,16,05,52,10.00
2018,10,16,05,53,9.90
2018,10,16,05,54,9.90
2018,10,16,05,55,9.80
2018,10,16,05,56,9.80
2018,10,16,05,57,9.70
2018,10,16,05,58,9.70
2018,10,16,05,59,9.60
2018,10,16,06,00,9.50
2018,10,16,06,01,9.50
2018,10,16,06,02,9.40
2018,10,16,06,03,9.30
2018,10,16,06,04,9.30
2018,10,16,06,05,9.20
2018,10,16,06,06,9.20
2018,10,16,06,07,9.10
2018,10,16,06,08,9.10
2018,10,16,06,09,9.00
2018,10,16,06,10,9.00
2018,10,16,06,11,8.90
2018,10,16,06,12,8.90
2018,10,16,06,13,8.80
2018,10,16,06,14,8.80
2018,10,16,06,15,8.80
2018,10,16,06,16,8.70
2018,10,16,06,17,8.70
2018,10,16,06,18,8.70
2018,10,16,06,19,8.70
2018,10,16,06,20,8.70
2018,10,16,06,21,8.60
2018,10,16,06,22,8.60
2018,10,16,06,23,8.60
2018,10,16,06,24,8.60
2018,10,16,06,25,8.60
2018,10,16,06,26,8.60
2018,10,16,06,27,8.60
2018,10,16,06,28,8.60
2018,10,16,06,29,8.60
2018,10,16,06,30,8.60
2018,10,16,06,31,8.60
2018,10,16,06,32,8.60
2018,10,16,06,33,8.60
2018,10,16,06,34,8.60
2018,10,16,06,35,8.60
2018,10,16,06,36,8.60
2018,10,16,06,37,8.60
2018,10,16,06,38,8.50
2018,10,16,06,39,8.50
2018,10,16,06,40,8.50
2018,10,16,06,41,8.50
2018,10,16,06,42,8.50
2018,10,16,06,43,8.50
2018,10,16,06,44,8.50
2018,10,16,06,45,8.50
2018,10,16,06,46,8.50
2018,10,16,06,47,8.50
2018,10,16,06,48,8.50
2018,10,16,06,49,8.50
2018,10,16,06,50,8.40
2018,10,16,06,51,8.40
2018,10,16,06,52,8.40
2018,10,16,06,53,8.40
2018,10,16,06,54,8.40
2018,10,16,06,55,8.30
2018,10,16,06,56,8.30
2018,10,16,06,57,8.30
2018,10,16,06,58,8.30
2018,10,16,06,59,8.30
2018,10,16,07,00,8.30
2018,10,16,07,01,8.30
2018,10,16,07,02,8.30
2018,10,16,07,03,8.30
2018,10,16,07,04,8.30
2018,10,16,07,05,8.30
2018,10,16,07,06,8.30
2018,10,16,07,07,8.20
2018,10,16,07,08,8.20
2018,10,16,07,09,8.20
2018,10,16,07,10,8.20
2018,10,16,07,11,8.20
2018,10,16,07,12,8.20
2018,10,16,07,13,8.20
2018,10,16,07,14,8.20
2018,10,16,07,15,8.20
2018,10,16,07,16,8.20
2018,10,16,07,17,8.20
2018,10,16,07,18,8.20
2018,10,16,07,19,8.20
2018,10,16,07,20,8.20
2018,10,16,07,21,8.20
2018,10,16,07,22,8.20
2018,10,16,07,23,8.20
2018,10,16,07,24,8.20
2018,10,16,07,25,8.20
2018,10,16,07,26,8.20
2018,10,16,07,27,8.20
2018,10,16,07,28,8.20
2018,10,16,07,29,8.20
2018,10,16,07,30,8.20
2018,10,16,07,31,8.20
2018,10,16,07,32,8.20
2018,10,16,07,33,8.20
2018,10,16,07,34,8.20
2018,10,16,07,35,8.20
2018,10,16,07,36,8.30
2018,10,16,07,37,8.30
2018,10,16,07,38,8.30
2018,10,16,07,39,8.30
2018,10,16,07,40,8.30
2018,10,16,07,41,8.30
2018,10,16,07,42,8.20
2018,10,16,07,43,8.30
2018,10,16,07,44,8.30
2018,10,16,07,45,8.30
2018,10,16,07,46,8.30
2018,10,16,07,47,8.30
2018,10,16,07,48,8.30
2018,10,16,07,49,8.30
2018,10,16,07,50,8.30
2018,10,16,07,51,8.30
2018,10,16,07,52,8.40
2018,10,16,07,53,8.40
2018,10,16,07,54,8.40
2018,10,16,07,55,8.40
2018,10,16,07,56,8.40
2018,10,16,07,57,8.40
2018,10,16,07,58,8.40
2018,10,16,07,59,8.50
2018,10,16,08,00,8.50
2018,10,16,08,01,8.50
2018,10,16,08,02,8.60
2018,10,16,08,03,8.60
2018,10,16,08,04,8.60
2018,10,16,08,05,8.70
2018,10,16,08,06,8.70
2018,10,16,08,07,8.80
2018,10,16,08,08,8.80
2018,10,16,08,09,8.90
2018,10,16,08,10,8.90
2018,10,16,08,11,9.00
2018,10,16,08,12,9.00
2018,10,16,08,13,9.10
2018,10,16,08,14,9.10
2018,10,16,08,15,9.10
2018,10,16,08,16,9.10
2018,10,16,08,17,9.10
2018,10,16,08,18,9.10
2018,10,16,08,19,9.10
2018,10,16,08,20,9.10
2018,10,16,08,21,9.10
2018,10,16,08,22,9.00
2018,10,16,08,23,9.00
2018,10,16,08,24,9.00
2018,10,16,08,25,9.00
2018,10,16,08,26,9.00
2018,10,16,08,27,9.00
2018,10,16,08,28,9.00
2018,10,16,08,29,9.00
2018,10,16,08,30,9.10
2018,10,16,08,31,9.10
2018,10,16,08,32,9.20
2018,10,16,08,33,9.20
2018,10,16,08,34,9.30
2018,10,16,08,35,9.30
2018,10,16,08,36,9.40
2018,10,16,08,37,9.40
2018,10,16,08,38,9.40
2018,10,16,08,39,9.40
2018,10,16,08,40,9.40
2018,10,16,08,41,9.40
2018,10,16,08,42,9.40
2018,10,16,08,43,9.40
2018,10,16,08,44,9.40
2018,10,16,08,45,9.30
2018,10,16,08,46,9.30
2018,10,16,08,47,9.40
2018,10,16,08,48,9.40
2018,10,16,08,49,9.40
2018,10,16,08,50,9.40
2018,10,16,08,51,9.40
2018,10,16,08,52,9.40
2018,10,16,08,53,9.40
2018,10,16,08,54,9.40
2018,10,16,08,55,9.40
2018,10,16,08,56,9.40
2018,10,16,08,57,9.40
2018,10,16,08,58,9.40
2018,10,16,08,59,9.40
2018,10,16,09,00,9.40
2018,10,16,09,01,9.40
2018,10,16,09,02,9.50
2018,10,16,09,03,9.50
2018,10,16,09,04,9.50
2018,10,16,09,05,9.50
2018,10,16,09,06,9.60
2018,10,16,09,07,9.60
2018,10,16,09,08,9.60
2018,10,16,09,09,9.60
2018,10,16,09,10,9.60
2018,10,16,09,11,9.70
2018,10,16,09,12,9.70
2018,10,16,09,13,9.70
2018,10,16,09,14,9.80
2018,10,16,09,15,9.80
2018,10,16,09,16,9.90
2018,10,16,09,17,9.90
2018,10,16,09,18,10.00
2018,10,16,09,19,10.10
2018,10,16,09,20,10.10
2018,10,16,09,21,10.20
2018,10,16,09,22,10.30
2018,10,16,09,23,10.30
2018,10,16,09,24,10.30
2018,10,16,09,25,10.40
2018,10,16,09,26,10.40
2018,10,16,09,27,10.40
2018,10,16,09,28,10.50
2018,10,16,09,29,10.50
2018,10,16,09,30,10.60
2018,10,16,09,31,10.60
2018,10,16,09,32,10.70
2018,10,16,09,33,10.80
2018,10,16,09,34,10.80
2018,10,16,09,35,10.90
2018,10,16,09,36,10.90
2018,10,16,09,37,11.00
2018,10,16,09,38,11.00
2018,10,16,09,39,11.10
2018,10,16,09,40,11.10
2018,10,16,09,41,11.20
2018,10,16,09,42,11.20
2018,10,16,09,43,11.20
2018,10,16,09,44,11.30
2018,10,16,09,45,11.30
2018,10,16,09,46,11.40
2018,10,16,09,47,11.40
2018,10,16,09,48,11.50
2018,10,16,09,49,11.50
2018,10,16,09,50,11.60
2018,10,16,09,51,11.60
2018,10,16,09,52,11.70
2018,10,16,09,53,11.70
2018,10,16,09,54,11.70
2018,10,16,09,55,11.80
2018,10,16,09,56,11.80
2018,10,16,09,57,11.80
2018,10,16,09,58,11.80
2018,10,16,09,59,11.80
2018,10,16,10,00,11.90
2018,10,16,10,01,11.90
2018,10,16,10,02,11.90
2018,10,16,10,03,11.90
2018,10,16,10,04,11.90
2018,10,16,10,05,11.90
2018,10,16,10,06,12.00
2018,10,16,10,07,12.00
2018,10,16,10,08,12.00
2018,10,16,10,09,12.10
2018,10,16,10,10,12.10
2018,10,16,10,11,12.10
2018,10,16,10,12,12.10
2018,10,16,10,13,12.20
2018,10,16,10,14,12.20
2018,10,16,10,15,12.20
2018,10,16,10,16,12.20
2018,10,16,10,17,12.20
2018,10,16,10,18,12.30
2018,10,16,10,19,12.30
2018,10,16,10,20,12.30
2018,10,16,10,21,12.30
2018,10,16,10,22,12.30
2018,10,16,10,23,12.30
2018,10,16,10,24,12.30
2018,10,16,10,25,12.30
2018,10,16,10,26,12.30
2018,10,16,10,27,12.30
2018,10,16,10,28,12.30
2018,10,16,10,29,12.30
2018,10,16,10,30,12.30
2018,10,16,10,31,12.30
2018,10,16,10,32,12.40
2018,10,16,10,33,12.40
2018,10,16,10,34,12.40
2018,10,16,10,35,12.40
2018,10,16,10,36,12.40
2018,10,16,10,37,12.50
2018,10,16,10,38,12.50
2018,10,16,10,39,12.50
2018,10,16,10,40,12.50
2018,10,16,10,41,12.50
2018,10,16,10,42,12.50
2018,10,16,10,43,12.50
2018,10,16,10,44,12.50
2018,10,16,10,45,12.50
2018,10,16,10,46,12.50
2018,10,16,10,47,12.50
2018,10,16,10,48,12.50
2018,10,16,10,49,12.50
2018,10,16,10,50,12.50
2018,10,16,10,51,12.50
2018,10,16,10,52,12.50
2018,10,16,10,53,12.50
2018,10,16,10,54,12.50
2018,10,16,10,55,12.60
2018,10,16,10,56,12.60
2018,10,16,10,57,12.60
2018,10,16,10,58,12.60
2018,10,16,10,59,12.60
2018,10,16,11,00,12.70
2018,10,16,11,01,12.70
2018,10,16,11,02,12.70
2018,10,16,11,03,12.70
2018,10,16,11,04,12.80
2018,10,16,11,05,12.90
2018,10,16,11,06,12.90
2018,10,16,11,07,13.00
2018,10,16,11,08,13.10
2018,10,16,11,09,13.20
2018,10,16,11,10,13.30
2018,10,16,11,11,13.40
2018,10,16,11,12,13.40
2018,10,16,11,13,13.50
2018,10,16,11,14,13.50
2018,10,16,11,15,13.60
2018,10,16,11,16,13.70
2018,10,16,11,17,13.70
2018,10,16,11,18,13.80
2018,10,16,11,19,13.80
2018,10,16,11,20,13.90
2018,10,16,11,21,13.90
2018,10,16,11,22,13.90
2018,10,16,11,23,14.00
2018,10,16,11,24,14.00
2018,10,16,11,25,14.10
2018,10,16,11,26,14.10
2018,10,16,11,27,14.10
2018,10,16,11,28,14.10
2018,10,16,11,29,14.10
2018,10,16,11,30,14.10
2018,10,16,11,31,14.10
2018,10,16,11,32,14.10
2018,10,16,11,33,14.10
2018,10,16,11,34,14.10
2018,10,16,11,35,14.00
2018,10,16,11,36,14.00
2018,10,16,11,37,14.00
2018,10,16,11,38,14.00
2018,10,16,11,39,14.00
2018,10,16,11,40,14.00
2018,10,16,11,41,14.00
2018,10,16,11,42,14.00
2018,10,16,11,43,14.10
2018,10,16,11,44,14.10
2018,10,16,11,45,14.20
2018,10,16,11,46,14.20
2018,10,16,11,47,14.30
2018,10,16,11,48,14.30
2018,10,16,11,49,14.30
2018,10,16,11,50,14.30
2018,10,16,11,51,14.30
2018,10,16,11,52,14.30
2018,10,16,11,53,14.30
2018,10,16,11,54,14.30
2018,10,16,11,55,14.40
2018,10,16,11,56,14.40
2018,10,16,11,57,14.40
2018,10,16,11,58,14.40
2018,10,16,11,59,14.50
2018,10,16,12,00,14.50
2018,10,16,12,01,14.60
2018,10,16,12,02,14.60
2018,10,16,12,03,14.70
2018,10,16,12,04,14.70
2018,10,16,12,05,14.70
2018,10,16,12,06,14.70
2018,10,16,12,07,14.70
2018,10,16,12,08,14.80
2018,10,16,12,09,14.80
2018,10,16,12,10,14.80
2018,10,16,12,11,14.80
2018,10,16,12,12,14.90
2018,10,16,12,13,14.90
2018,10,16,12,14,14.90
2018,10,16,12,15,15.00
2018,10,16,12,16,15.00
2018,10,16,12,17,15.00
2018,10,16,12,18,15.10
2018,10,16,12,19,15.10
2018,10,16,12,20,15.20
2018,10,16,12,21,15.20
2018,10,16,12,22,15.30
2018,10,16,12,23,15.30
2018,10,16,12,24,15.30
2018,10,16,12,25,15.30
2018,10,16,12,26,15.40
2018,10,16,12,27,15.40
2018,10,16,12,28,15.40
2018,10,16,12,29,15.50
2018,10,16,12,30,15.50
2018,10,16,12,31,15.50
2018,10,16,12,32,15.50
2018,10,16,12,33,15.50
2018,10,16,12,34,15.50
2018,10,16,12,35,15.60
2018,10,16,12,36,15.60
2018,10,16,12,37,15.70
2018,10,16,12,38,15.80
2018,10,16,12,39,15.80
2018,10,16,12,40,15.90
2018,10,16,12,41,16.00
2018,10,16,12,42,16.00
2018,10,16,12,43,16.10
2018,10,16,12,44,16.10
2018,10,16,12,45,16.10
2018,10,16,12,46,16.10
2018,10,16,12,47,16.00
2018,10,16,12,48,16.00
2018,10,16,12,49,15.90
2018,10,16,12,50,15.90
2018,10,16,12,51,15.80
2018,10,16,12,52,15.80
2018,10,16,12,53,15.90
2018,10,16,12,54,15.90
2018,10,16,12,55,15.90
2018,10,16,12,56,15.90
2018,10,16,12,57,15.80
2018,10,16,12,58,15.80
2018,10,16,12,59,15.80
2018,10,16,13,00,15.80
2018,10,16,13,01,15.70
2018,10,16,13,02,15.70
2018,10,16,13,03,15.70
2018,10,16,13,04,15.70
2018,10,16,13,05,15.70
2018,10,16,13,06,15.70
2018,10,16,13,07,15.70
2018,10,16,13,08,15.70
2018,10,16,13,09,15.70
2018,10,16,13,10,15.70
2018,10,16,13,11,15.60
2018,10,16,13,12,15.60
2018,10,16,13,13,15.50
2018,10,16,13,14,15.50
2018,10,16,13,15,15.50
2018,10,16,13,16,15.50
2018,10,16,13,17,15.50
2018,10,16,13,18,15.50
2018,10,16,13,19,15.50
2018,10,16,13,20,15.60
2018,10,16,13,21,15.60
2018,10,16,13,22,15.60
2018,10,16,13,23,15.60
2018,10,16,13,24,15.60
2018,10,16,13,25,15.60
2018,10,16,13,26,15.60
2018,10,16,13,27,15.60
2018,10,16,13,28,15.60
2018,10,16,13,29,15.70
2018,10,16,13,30,15.70
2018,10,16,13,31,15.70
2018,10,16,13,32,15.80
2018,10,16,13,33,15.80
2018,10,16,13,34,15.90
2018,10,16,13,35,15.90
2018,10,16,13,36,16.00
2018,10,16,13,37,16.10
2018,10,16,13,38,16.10
2018,10,16,13,39,16.10
2018,10,16,13,40,16.20
2018,10,16,13,41,16.20
2018,10,16,13,42,16.30
2018,10,16,13,43,16.30
2018,10,16,13,44,16.40
2018,10,16,13,45,16.40
2018,10,16,13,46,16.50
2018,10,16,13,47,16.60
2018,10,16,13,48,16.60
2018,10,16,13,49,16.60
2018,10,16,13,50,16.60
2018,10,16,13,51,16.60
2018,10,16,13,52,16.70
2018,10,16,13,53,16.70
2018,10,16,13,54,16.60
2018,10,16,13,55,16.60
2018,10,16,13,56,16.60
2018,10,16,13,57,16.60
2018,10,16,13,58,16.60
2018,10,16,13,59,16.60
2018,10,16,14,00,16.60
2018,10,16,14,01,16.60
2018,10,16,14,02,16.50
2018,10,16,14,03,16.50
2018,10,16,14,04,16.40
2018,10,16,14,05,16.40
2018,10,16,14,06,16.40
2018,10,16,14,07,16.40
2018,10,16,14,08,16.40
2018,10,16,14,09,16.40
2018,10,16,14,10,16.50
2018,10,16,14,11,16.50
2018,10,16,14,12,16.60
2018,10,16,14,13,16.60
2018,10,16,14,14,16.70
2018,10,16,14,15,16.70
2018,10,16,14,16,16.80
2018,10,16,14,17,16.80
2018,10,16,14,18,16.80
2018,10,16,14,19,16.90
2018,10,16,14,20,16.90
2018,10,16,14,21,16.90
2018,10,16,14,22,17.00
2018,10,16,14,23,17.00
2018,10,16,14,24,17.00
2018,10,16,14,25,17.10
2018,10,16,14,26,17.10
2018,10,16,14,27,17.10
2018,10,16,14,28,17.20
2018,10,16,14,29,17.20
2018,10,16,14,30,17.20
2018,10,16,14,31,17.20
2018,10,16,14,32,17.20
2018,10,16,14,33,17.20
2018,10,16,14,34,17.20
2018,10,16,14,35,17.20
2018,10,16,14,36,17.20
2018,10,16,14,37,17.20
2018,10,16,14,38,17.20
2018,10,16,14,39,17.30
2018,10,16,14,40,17.30
2018,10,16,14,41,17.30
2018,10,16,14,42,17.40
2018,10,16,14,43,17.40
2018,10,16,14,44,17.40
2018,10,16,14,45,17.40
2018,10,16,14,46,17.40
2018,10,16,14,47,17.40
2018,10,16,14,48,17.40
2018,10,16,14,49,17.30
2018,10,16,14,50,17.30
2018,10,16,14,51,17.20
2018,10,16,14,52,17.20
2018,10,16,14,53,17.10
2018,10,16,14,54,17.10
2018,10,16,14,55,17.20
2018,10,16,14,56,17.20
2018,10,16,14,57,17.30
2018,10,16,14,58,17.30
2018,10,16,14,59,17.40
2018,10,16,15,00,17.40
2018,10,16,15,01,17.50
2018,10,16,15,02,17.60
2018,10,16,15,03,17.70
2018,10,16,15,04,17.70
2018,10,16,15,05,17.70
2018,10,16,15,06,17.70
2018,10,16,15,07,17.70
2018,10,16,15,08,17.70
2018,10,16,15,09,17.70
2018,10,16,15,10,17.80
2018,10,16,15,11,17.80
2018,10,16,15,12,17.80
2018,10,16,15,13,17.80
2018,10,16,15,14,17.80
2018,10,16,15,15,17.80
2018,10,16,15,16,17.80
2018,10,16,15,17,17.90
2018,10,16,15,18,17.80
2018,10,16,15,19,17.80
2018,10,16,15,20,17.80
2018,10,16,15,21,17.80
2018,10,16,15,22,17.70
2018,10,16,15,23,17.60
2018,10,16,15,24,17.50
2018,10,16,15,25,17.50
2018,10,16,15,26,17.40
2018,10,16,15,27,17.40
2018,10,16,15,28,17.40
2018,10,16,15,29,17.30
2018,10,16,15,30,17.30
2018,10,16,15,31,17.30
2018,10,16,15,32,17.20
2018,10,16,15,33,17.10
2018,10,16,15,34,17.00
2018,10,16,15,35,16.90
2018,10,16,15,36,16.90
2018,10,16,15,37,16.80
2018,10,16,15,38,16.70
2018,10,16,15,39,16.70
2018,10,16,15,40,16.70
2018,10,16,15,41,16.70
2018,10,16,15,42,16.80
2018,10,16,15,43,16.80
2018,10,16,15,44,16.90
2018,10,16,15,45,16.90
2018,10,16,15,46,16.90
2018,10,16,15,47,17.00
2018,10,16,15,48,17.10
2018,10,16,15,49,17.10
2018,10,16,15,50,17.10
2018,10,16,15,51,17.10
2018,10,16,15,52,17.10
2018,10,16,15,53,17.10
2018,10,16,15,54,17.00
2018,10,16,15,55,17.00
2018,10,16,15,56,16.90
2018,10,16,15,57,16.90
2018,10,16,15,58,16.80
2018,10,16,15,59,16.80
2018,10,16,16,00,16.80
2018,10,16,16,01,16.70
2018,10,16,16,02,16.70
2018,10,16,16,03,16.70
2018,10,16,16,04,16.60
2018,10,16,16,05,16.60
2018,10,16,16,06,16.50
2018,10,16,16,07,16.50
2018,10,16,16,08,16.40
2018,10,16,16,09,16.40
2018,10,16,16,10,16.40
2018,10,16,16,11,16.40
2018,10,16,16,12,16.30
2018,10,16,16,13,16.30
2018,10,16,16,14,16.30
2018,10,16,16,15,16.30
2018,10,16,16,16,16.30
2018,10,16,16,17,16.30
2018,10,16,16,18,16.20
2018,10,16,16,19,16.20
2018,10,16,16,20,16.10
2018,10,16,16,21,16.00
2018,10,16,16,22,15.90
2018,10,16,16,23,15.90
2018,10,16,16,24,15.90
2018,10,16,16,25,15.80
2018,10,16,16,26,15.80
2018,10,16,16,27,15.80
2018,10,16,16,28,15.70
2018,10,16,16,29,15.70
2018,10,16,16,30,15.60
2018,10,16,16,31,15.60
2018,10,16,16,32,15.60
2018,10,16,16,33,15.60
2018,10,16,16,34,15.60
2018,10,16,16,35,15.60
2018,10,16,16,36,15.70
2018,10,16,16,37,15.70
2018,10,16,16,38,15.70
2018,10,16,16,39,15.70
2018,10,16,16,40,15.70
2018,10,16,16,41,15.70
2018,10,16,16,42,15.70
2018,10,16,16,43,15.70
2018,10,16,16,44,15.60
2018,10,16,16,45,15.60
2018,10,16,16,46,15.60
2018,10,16,16,47,15.60
2018,10,16,16,48,15.60
2018,10,16,16,49,15.50
2018,10,16,16,50,15.60
2018,10,16,16,51,15.60
2018,10,16,16,52,15.60
2018,10,16,16,53,15.60
2018,10,16,16,54,15.70
2018,10,16,16,55,15.70
2018,10,16,16,56,15.70
2018,10,16,16,57,15.70
2018,10,16,16,58,15.70
2018,10,16,16,59,15.70
2018,10,16,17,00,15.80
2018,10,16,17,01,15.70
2018,10,16,17,02,15.80
2018,10,16,17,03,15.80
2018,10,16,17,04,15.80
2018,10,16,17,05,15.70
2018,10,16,17,06,15.70
2018,10,16,17,07,15.70
2018,10,16,17,08,15.60
2018,10,16,17,09,15.60
2018,10,16,17,10,15.60
2018,10,16,17,11,15.50
2018,10,16,17,12,15.50
2018,10,16,17,13,15.40
2018,10,16,17,14,15.40
2018,10,16,17,15,15.30
2018,10,16,17,16,15.30
2018,10,16,17,17,15.30
2018,10,16,17,18,15.20
2018,10,16,17,19,15.20
2018,10,16,17,20,15.10
2018,10,16,17,21,15.00
2018,10,16,17,22,15.00
2018,10,16,17,23,14.90
2018,10,16,17,24,14.90
2018,10,16,17,25,14.80
2018,10,16,17,26,14.80
2018,10,16,17,27,14.80
2018,10,16,17,28,14.70
2018,10,16,17,29,14.70
2018,10,16,17,30,14.60
2018,10,16,17,31,14.50
2018,10,16,17,32,14.40
2018,10,16,17,33,14.40
2018,10,16,17,34,14.40
2018,10,16,17,35,14.30
2018,10,16,17,36,14.20
2018,10,16,17,37,14.20
2018,10,16,17,38,14.20
2018,10,16,17,39,14.10
2018,10,16,17,40,14.10
2018,10,16,17,41,14.00
2018,10,16,17,42,13.90
2018,10,16,17,43,13.80